Time,TemperatureF,DewpointF,PressureIn,WindDirection,WindDirectionDegrees,WindSpeedMPH,WindSpeedGustMPH,Humidity,HourlyPrecipIn,Conditions,Clouds,dailyrainin,SoftwareType,DateUTC
2013-04-09 00:00:00,44.7,41.0,30.16,SSE,157,2.1,7.2,88,0.00,,,0.00,Rainwise IP-100,2013-04-09 04:00:00,
2013-04-09 00:04:00,44.6,41.0,30.16,SSE,157,5.1,7.7,88,0.00,,,0.00,Rainwise IP-100,2013-04-09 04:04:00,
2013-04-09 00:06:00,44.6,41.0,30.16,SE,135,2.3,9.1,88,0.00,,,0.00,Rainwise IP-100,2013-04-09 04:06:00,
2013-04-09 00:11:00,44.6,41.0,30.16,SSE,157,4.2,6.8,88,0.00,,,0.00,Rainwise IP-100,2013-04-09 04:11:00,
2013-04-09 00:16:00,44.6,41.0,30.16,SSE,157,3.3,7.5,88,0.00,,,0.00,Rainwise IP-100,2013-04-09 04:16:00,
2013-04-09 00:21:00,44.6,41.0,30.16,ESE,112,6.3,6.3,88,0.00,,,0.00,Rainwise IP-100,2013-04-09 04:21:00,
2013-04-09 00:26:00,44.6,41.0,30.16,SSE,157,3.0,8.6,88,0.00,,,0.00,Rainwise IP-100,2013-04-09 04:26:00,
2013-04-09 00:31:00,44.6,42.0,30.16,SSE,157,5.4,7.9,89,0.00,,,0.00,Rainwise IP-100,2013-04-09 04:31:00,
2013-04-09 00:36:00,44.5,42.0,30.16,SSE,157,2.8,7.5,89,0.00,,,0.00,Rainwise IP-100,2013-04-09 04:36:00,
2013-04-09 00:41:00,44.6,42.0,30.16,SE,135,4.2,9.1,89,0.00,,,0.00,Rainwise IP-100,2013-04-09 04:41:00,
2013-04-09 00:46:00,44.6,42.0,30.16,ESE,112,5.4,8.6,90,0.00,,,0.00,Rainwise IP-100,2013-04-09 04:46:00,
2013-04-09 00:51:00,44.7,42.0,30.15,ESE,112,3.0,9.8,90,0.00,,,0.00,Rainwise IP-100,2013-04-09 04:51:00,
2013-04-09 00:56:00,44.8,42.0,30.15,SE,135,3.3,7.5,90,0.00,,,0.00,Rainwise IP-100,2013-04-09 04:56:00,
2013-04-09 01:01:00,44.8,42.0,30.15,SE,135,4.7,9.1,90,0.00,,,0.00,Rainwise IP-100,2013-04-09 05:01:00,
2013-04-09 01:06:00,44.9,42.0,30.14,ESE,112,3.3,8.2,90,0.00,,,0.00,Rainwise IP-100,2013-04-09 05:06:00,
2013-04-09 01:11:00,44.8,42.0,30.14,SSE,157,1.6,8.2,90,0.00,,,0.00,Rainwise IP-100,2013-04-09 05:11:00,
2013-04-09 01:16:00,44.7,42.0,30.14,SE,135,5.6,8.2,90,0.00,,,0.00,Rainwise IP-100,2013-04-09 05:16:00,
2013-04-09 01:21:00,44.7,42.0,30.14,SSE,157,3.5,9.3,90,0.00,,,0.00,Rainwise IP-100,2013-04-09 05:21:00,
2013-04-09 01:27:00,44.7,42.0,30.14,SE,135,4.0,8.6,90,0.00,,,0.00,Rainwise IP-100,2013-04-09 05:27:00,
2013-04-09 01:32:00,44.7,42.0,30.14,ESE,112,5.4,7.2,90,0.00,,,0.00,Rainwise IP-100,2013-04-09 05:32:00,
2013-04-09 01:37:00,44.7,42.0,30.13,ESE,112,1.2,7.2,90,0.00,,,0.00,Rainwise IP-100,2013-04-09 05:37:00,
2013-04-09 01:42:00,44.6,42.0,30.13,SE,135,4.2,6.5,90,0.00,,,0.00,Rainwise IP-100,2013-04-09 05:42:00,
2013-04-09 01:47:00,44.6,42.0,30.12,SE,135,3.5,7.7,90,0.00,,,0.00,Rainwise IP-100,2013-04-09 05:47:00,
2013-04-09 01:52:00,44.7,42.0,30.13,SSE,157,3.0,7.5,90,0.00,,,0.00,Rainwise IP-100,2013-04-09 05:52:00,
2013-04-09 01:57:00,44.7,42.0,30.13,SSE,157,3.5,6.3,90,0.00,,,0.00,Rainwise IP-100,2013-04-09 05:57:00,
2013-04-09 02:02:00,44.7,42.0,30.12,SSE,157,4.7,6.5,90,0.00,,,0.00,Rainwise IP-100,2013-04-09 06:02:00,
2013-04-09 02:07:00,44.8,42.0,30.12,SSE,157,1.9,8.9,90,0.00,,,0.00,Rainwise IP-100,2013-04-09 06:07:00,
2013-04-09 02:12:00,44.9,42.0,30.11,SSE,157,5.1,7.9,90,0.00,,,0.00,Rainwise IP-100,2013-04-09 06:12:00,
2013-04-09 02:17:00,44.9,42.0,30.11,SSE,157,3.3,8.9,90,0.00,,,0.00,Rainwise IP-100,2013-04-09 06:17:00,
2013-04-09 02:22:00,45.0,42.0,30.10,SSE,157,3.5,8.2,90,0.00,,,0.00,Rainwise IP-100,2013-04-09 06:22:00,
2013-04-09 02:27:00,45.0,42.0,30.10,SSE,157,3.7,6.3,90,0.00,,,0.00,Rainwise IP-100,2013-04-09 06:27:00,
2013-04-09 02:32:00,45.0,42.0,30.10,SSE,157,4.2,7.2,90,0.00,,,0.00,Rainwise IP-100,2013-04-09 06:32:00,
2013-04-09 02:37:00,45.1,42.0,30.10,SE,135,1.9,7.9,90,0.00,,,0.00,Rainwise IP-100,2013-04-09 06:37:00,
2013-04-09 02:42:00,45.1,42.0,30.10,ESE,112,1.9,8.6,90,0.00,,,0.00,Rainwise IP-100,2013-04-09 06:42:00,
2013-04-09 02:47:00,45.1,42.0,30.10,SSE,157,3.3,7.5,90,0.00,,,0.00,Rainwise IP-100,2013-04-09 06:47:00,
2013-04-09 02:52:00,45.0,42.0,30.10,SSE,157,3.5,6.3,90,0.00,,,0.00,Rainwise IP-100,2013-04-09 06:52:00,
2013-04-09 02:57:00,45.0,42.0,30.10,South,180,2.8,6.3,90,0.00,,,0.00,Rainwise IP-100,2013-04-09 06:57:00,
2013-04-09 03:02:00,44.9,42.0,30.10,SSE,157,4.9,5.8,90,0.00,,,0.00,Rainwise IP-100,2013-04-09 07:02:00,
2013-04-09 03:07:00,44.9,42.0,30.10,ESE,112,1.2,7.9,90,0.00,,,0.00,Rainwise IP-100,2013-04-09 07:07:00,
2013-04-09 03:12:00,45.0,42.0,30.09,ESE,112,3.5,4.7,90,0.00,,,0.00,Rainwise IP-100,2013-04-09 07:12:00,
2013-04-09 03:17:00,45.0,42.0,30.09,SSE,157,2.8,5.8,90,0.00,,,0.00,Rainwise IP-100,2013-04-09 07:17:00,
2013-04-09 03:22:00,45.1,42.0,30.09,SE,135,1.9,7.2,90,0.00,,,0.00,Rainwise IP-100,2013-04-09 07:22:00,
2013-04-09 03:27:00,45.2,42.0,30.08,ESE,112,3.3,7.5,89,0.00,,,0.00,Rainwise IP-100,2013-04-09 07:27:00,
2013-04-09 03:32:00,45.4,42.0,30.08,SSE,157,4.9,8.6,89,0.00,,,0.00,Rainwise IP-100,2013-04-09 07:32:00,
2013-04-09 03:37:00,45.5,43.0,30.08,ESE,112,4.9,9.3,89,0.00,,,0.00,Rainwise IP-100,2013-04-09 07:37:00,
2013-04-09 03:42:00,45.6,43.0,30.08,SSE,157,4.0,9.3,89,0.00,,,0.00,Rainwise IP-100,2013-04-09 07:42:00,
2013-04-09 03:47:00,45.6,43.0,30.08,ESE,112,4.0,9.8,89,0.00,,,0.00,Rainwise IP-100,2013-04-09 07:47:00,
2013-04-09 03:52:00,45.6,43.0,30.08,ESE,112,3.7,11.0,89,0.00,,,0.00,Rainwise IP-100,2013-04-09 07:52:00,
2013-04-09 03:57:00,45.6,43.0,30.07,SSE,157,1.6,8.9,89,0.00,,,0.00,Rainwise IP-100,2013-04-09 07:57:00,
2013-04-09 04:02:00,45.5,43.0,30.06,SE,135,7.9,11.7,89,0.00,,,0.00,Rainwise IP-100,2013-04-09 08:02:00,
2013-04-09 04:07:00,45.5,43.0,30.05,South,180,4.9,9.3,90,0.00,,,0.00,Rainwise IP-100,2013-04-09 08:07:00,
2013-04-09 04:12:00,45.5,43.0,30.05,ESE,112,11.0,11.0,91,0.00,,,0.00,Rainwise IP-100,2013-04-09 08:12:00,
2013-04-09 04:17:00,45.5,43.0,30.06,SSW,202,4.7,11.9,91,0.00,,,0.00,Rainwise IP-100,2013-04-09 08:17:00,
2013-04-09 04:22:00,45.5,43.0,30.06,SSE,157,7.5,8.4,91,0.00,,,0.00,Rainwise IP-100,2013-04-09 08:22:00,
2013-04-09 04:27:00,45.4,43.0,30.05,ESE,112,5.1,8.9,92,0.00,,,0.00,Rainwise IP-100,2013-04-09 08:27:00,
2013-04-09 04:32:00,45.4,43.0,30.06,ESE,112,1.9,10.0,92,0.00,,,0.00,Rainwise IP-100,2013-04-09 08:32:00,
2013-04-09 04:37:00,45.4,43.0,30.05,SSE,157,4.7,10.0,92,0.00,,,0.00,Rainwise IP-100,2013-04-09 08:37:00,
2013-04-09 04:42:00,45.3,43.0,30.05,ESE,112,2.1,9.3,92,0.00,,,0.00,Rainwise IP-100,2013-04-09 08:42:00,
2013-04-09 04:47:00,45.3,43.0,30.05,ESE,112,7.0,8.2,93,0.00,,,0.00,Rainwise IP-100,2013-04-09 08:47:00,
2013-04-09 04:52:00,45.3,43.0,30.05,SSE,157,4.0,9.6,93,0.00,,,0.00,Rainwise IP-100,2013-04-09 08:52:00,
2013-04-09 04:58:00,45.2,43.0,30.05,ESE,112,4.0,9.3,93,0.00,,,0.00,Rainwise IP-100,2013-04-09 08:58:00,
2013-04-09 05:03:00,45.2,43.0,30.04,SSE,157,4.9,9.3,93,0.00,,,0.00,Rainwise IP-100,2013-04-09 09:03:00,
2013-04-09 05:08:00,45.1,43.0,30.04,ESE,112,6.5,10.3,94,0.00,,,0.00,Rainwise IP-100,2013-04-09 09:08:00,
2013-04-09 05:13:00,45.1,43.0,30.03,SSE,157,3.0,10.7,94,0.00,,,0.00,Rainwise IP-100,2013-04-09 09:13:00,
2013-04-09 05:18:00,45.1,44.0,30.02,SSE,157,6.1,7.2,95,0.00,,,0.00,Rainwise IP-100,2013-04-09 09:18:00,
2013-04-09 05:23:00,45.1,44.0,30.02,ESE,112,6.3,7.7,95,0.00,,,0.00,Rainwise IP-100,2013-04-09 09:23:00,
2013-04-09 05:28:00,45.2,44.0,30.02,SSE,157,4.0,10.7,95,0.00,,,0.00,Rainwise IP-100,2013-04-09 09:28:00,
2013-04-09 05:33:00,45.3,44.0,30.02,SSE,157,3.0,7.9,96,0.00,,,0.00,Rainwise IP-100,2013-04-09 09:33:00,
2013-04-09 05:38:00,45.4,44.0,30.02,SSE,157,6.3,7.9,96,0.00,,,0.00,Rainwise IP-100,2013-04-09 09:38:00,
2013-04-09 05:43:00,45.5,45.0,30.02,South,180,3.5,8.2,96,0.00,,,0.00,Rainwise IP-100,2013-04-09 09:43:00,
2013-04-09 05:48:00,45.6,45.0,30.01,ESE,112,1.6,11.2,97,0.00,,,0.00,Rainwise IP-100,2013-04-09 09:48:00,
2013-04-09 05:53:00,45.8,45.0,30.02,SSE,157,3.5,10.7,97,0.00,,,0.00,Rainwise IP-100,2013-04-09 09:53:00,
2013-04-09 05:58:00,45.9,45.0,30.03,SSW,202,3.0,9.8,97,0.00,,,0.00,Rainwise IP-100,2013-04-09 09:58:00,
2013-04-09 06:03:00,45.9,45.0,30.03,SSE,157,2.3,7.2,97,0.00,,,0.00,Rainwise IP-100,2013-04-09 10:03:00,
2013-04-09 06:08:00,46.0,45.0,30.02,SSE,157,4.0,6.5,97,0.00,,,0.00,Rainwise IP-100,2013-04-09 10:08:00,
2013-04-09 06:13:00,46.0,45.0,30.01,SE,135,9.6,9.6,98,0.00,,,0.00,Rainwise IP-100,2013-04-09 10:13:00,
2013-04-09 06:18:00,45.9,45.0,30.01,SE,135,4.2,10.0,98,0.00,,,0.00,Rainwise IP-100,2013-04-09 10:18:00,
2013-04-09 06:23:00,45.9,45.0,30.00,SSE,157,4.2,7.9,98,0.00,,,0.00,Rainwise IP-100,2013-04-09 10:23:00,
2013-04-09 06:28:00,45.8,45.0,30.00,SE,135,1.2,11.9,98,0.00,,,0.00,Rainwise IP-100,2013-04-09 10:28:00,
2013-04-09 06:33:00,45.8,45.0,30.00,SSE,157,3.7,9.1,98,0.00,,,0.00,Rainwise IP-100,2013-04-09 10:33:00,
2013-04-09 06:38:00,45.8,45.0,30.01,SSE,157,5.1,9.3,98,0.00,,,0.00,Rainwise IP-100,2013-04-09 10:38:00,
2013-04-09 06:43:00,45.9,45.0,30.01,SE,135,5.4,10.3,98,0.00,,,0.00,Rainwise IP-100,2013-04-09 10:43:00,
2013-04-09 06:48:00,46.0,45.0,30.00,SSE,157,3.7,10.0,98,0.00,,,0.00,Rainwise IP-100,2013-04-09 10:48:00,
2013-04-09 06:54:00,46.0,45.0,29.99,SSE,157,7.0,10.0,98,0.00,,,0.00,Rainwise IP-100,2013-04-09 10:54:00,
2013-04-09 06:59:00,46.0,46.0,29.99,North,360,1.4,8.6,99,0.00,,,0.00,Rainwise IP-100,2013-04-09 10:59:00,
2013-04-09 07:04:00,46.1,46.0,29.99,SSE,157,2.8,8.4,99,0.00,,,0.00,Rainwise IP-100,2013-04-09 11:04:00,
2013-04-09 07:09:00,46.2,46.0,30.00,SW,225,3.7,7.7,99,0.00,,,0.00,Rainwise IP-100,2013-04-09 11:09:00,
2013-04-09 07:14:00,46.3,46.0,30.01,SW,225,3.3,7.5,99,0.00,,,0.00,Rainwise IP-100,2013-04-09 11:14:00,
2013-04-09 07:19:00,46.7,47.0,29.99,SSE,157,4.7,9.3,99,0.00,,,0.00,Rainwise IP-100,2013-04-09 11:19:00,
2013-04-09 07:24:00,47.3,47.5,29.98,SSE,157,1.6,10.3,99,0.00,,,0.00,Rainwise IP-100,2013-04-09 11:24:00,
2013-04-09 07:29:00,47.6,47.5,29.99,WSW,247,7.2,9.1,99,0.00,,,0.00,Rainwise IP-100,2013-04-09 11:29:00,
2013-04-09 07:34:00,47.9,48.0,30.00,SW,225,2.1,9.8,99,0.00,,,0.00,Rainwise IP-100,2013-04-09 11:34:00,
2013-04-09 07:39:00,48.1,48.0,29.99,SSE,157,1.2,8.6,99,0.00,,,0.00,Rainwise IP-100,2013-04-09 11:39:00,
2013-04-09 07:44:00,48.3,48.0,29.99,North,360,0.0,7.0,99,0.00,,,0.00,Rainwise IP-100,2013-04-09 11:44:00,
2013-04-09 07:49:00,48.7,49.0,29.99,SW,225,3.3,8.4,99,0.00,,,0.00,Rainwise IP-100,2013-04-09 11:49:00,
2013-04-09 07:54:00,49.2,49.0,29.99,SW,225,3.5,9.1,100,0.00,,,0.00,Rainwise IP-100,2013-04-09 11:54:00,
2013-04-09 07:59:00,49.7,50.0,29.98,SW,225,5.8,6.3,100,0.00,,,0.00,Rainwise IP-100,2013-04-09 11:59:00,
2013-04-09 08:04:00,50.2,50.0,29.98,SW,225,0.0,8.9,100,0.00,,,0.00,Rainwise IP-100,2013-04-09 12:04:00,
2013-04-09 08:09:00,50.6,50.5,29.98,SW,225,4.2,11.4,100,0.00,,,0.00,Rainwise IP-100,2013-04-09 12:09:00,
2013-04-09 08:14:00,50.7,50.5,29.97,SW,225,0.0,11.9,99,0.00,,,0.00,Rainwise IP-100,2013-04-09 12:14:00,
2013-04-09 08:19:00,50.8,51.0,29.97,SW,225,6.3,10.7,99,0.00,,,0.00,Rainwise IP-100,2013-04-09 12:19:00,
2013-04-09 08:24:00,51.0,51.0,29.97,SSW,202,6.8,10.0,99,0.00,,,0.00,Rainwise IP-100,2013-04-09 12:24:00,
2013-04-09 08:29:00,51.3,51.0,29.97,NW,315,3.7,11.9,99,0.00,,,0.00,Rainwise IP-100,2013-04-09 12:29:00,
2013-04-09 08:34:00,51.6,52.0,29.97,WNW,292,7.7,9.1,99,0.00,,,0.00,Rainwise IP-100,2013-04-09 12:34:00,
2013-04-09 08:39:00,52.0,51.0,29.97,North,360,4.2,16.1,98,0.00,,,0.00,Rainwise IP-100,2013-04-09 12:39:00,
2013-04-09 08:44:00,52.2,51.0,29.96,SSW,202,4.7,17.3,97,0.00,,,0.00,Rainwise IP-100,2013-04-09 12:44:00,
2013-04-09 08:49:00,52.4,50.5,29.96,WSW,247,5.1,13.5,96,0.00,,,0.00,Rainwise IP-100,2013-04-09 12:49:00,
2013-04-09 08:54:00,52.5,51.0,29.96,SSW,202,5.6,17.0,95,0.00,,,0.00,Rainwise IP-100,2013-04-09 12:54:00,
2013-04-09 08:59:00,52.3,50.5,29.95,WNW,292,6.5,16.1,94,0.00,,,0.00,Rainwise IP-100,2013-04-09 12:59:00,
2013-04-09 09:04:00,52.0,50.0,29.95,SW,225,9.3,14.0,93,0.00,,,0.00,Rainwise IP-100,2013-04-09 13:04:00,
2013-04-09 09:09:00,51.8,50.0,29.96,WSW,247,8.6,12.1,93,0.00,,,0.00,Rainwise IP-100,2013-04-09 13:09:00,
2013-04-09 09:14:00,51.5,50.0,29.95,SSW,202,5.8,14.7,93,0.00,,,0.00,Rainwise IP-100,2013-04-09 13:14:00,
2013-04-09 09:19:00,51.1,49.0,29.95,WNW,292,3.5,17.0,93,0.00,,,0.00,Rainwise IP-100,2013-04-09 13:19:00,
2013-04-09 09:24:00,51.1,49.0,29.95,WSW,247,6.3,18.2,93,0.00,,,0.00,Rainwise IP-100,2013-04-09 13:24:00,
2013-04-09 09:29:00,51.1,49.0,29.96,WSW,247,6.8,17.3,92,0.00,,,0.00,Rainwise IP-100,2013-04-09 13:29:00,
2013-04-09 09:35:00,50.9,49.0,29.95,West,270,8.2,16.1,92,0.00,,,0.00,Rainwise IP-100,2013-04-09 13:35:00,
2013-04-09 09:40:00,50.7,48.0,29.95,WSW,247,10.3,20.3,92,0.00,,,0.00,Rainwise IP-100,2013-04-09 13:40:00,
2013-04-09 09:45:00,50.7,48.0,29.95,West,270,5.1,16.1,92,0.00,,,0.00,Rainwise IP-100,2013-04-09 13:45:00,
2013-04-09 09:50:00,50.7,48.0,29.95,West,270,15.2,17.7,92,0.00,,,0.00,Rainwise IP-100,2013-04-09 13:50:00,
2013-04-09 09:55:00,50.7,48.0,29.95,West,270,6.8,15.6,92,0.00,,,0.00,Rainwise IP-100,2013-04-09 13:55:00,
2013-04-09 10:00:00,50.5,48.0,29.94,WSW,247,10.0,18.4,92,0.00,,,0.00,Rainwise IP-100,2013-04-09 14:00:00,
2013-04-09 10:05:00,50.7,48.0,29.94,West,270,6.8,14.0,91,0.00,,,0.00,Rainwise IP-100,2013-04-09 14:05:00,
2013-04-09 10:10:00,50.8,48.0,29.94,WSW,247,16.3,16.3,90,0.00,,,0.00,Rainwise IP-100,2013-04-09 14:10:00,
2013-04-09 10:15:00,50.9,48.0,29.94,WSW,247,4.9,18.2,90,0.00,,,0.00,Rainwise IP-100,2013-04-09 14:15:00,
2013-04-09 10:20:00,50.9,48.0,29.94,WNW,292,11.9,16.8,90,0.00,,,0.00,Rainwise IP-100,2013-04-09 14:20:00,
2013-04-09 10:25:00,50.6,47.5,29.94,South,180,7.5,18.2,90,0.00,,,0.00,Rainwise IP-100,2013-04-09 14:25:00,
2013-04-09 10:30:00,50.5,47.5,29.94,SW,225,8.2,23.8,90,0.00,,,0.00,Rainwise IP-100,2013-04-09 14:30:00,
2013-04-09 10:35:00,50.6,47.5,29.94,SW,225,7.9,16.8,90,0.00,,,0.00,Rainwise IP-100,2013-04-09 14:35:00,
2013-04-09 10:40:00,50.8,48.0,29.94,WSW,247,6.8,16.1,89,0.00,,,0.00,Rainwise IP-100,2013-04-09 14:40:00,
2013-04-09 10:45:00,51.1,48.0,29.94,WNW,292,2.3,14.2,89,0.00,,,0.00,Rainwise IP-100,2013-04-09 14:45:00,
2013-04-09 10:50:00,51.2,47.5,29.94,WNW,292,4.0,16.6,88,0.00,,,0.00,Rainwise IP-100,2013-04-09 14:50:00,
2013-04-09 10:55:00,51.0,47.5,29.94,WSW,247,5.1,16.8,88,0.00,,,0.00,Rainwise IP-100,2013-04-09 14:55:00,
2013-04-09 11:00:00,50.8,47.5,29.94,WSW,247,6.3,17.0,88,0.00,,,0.00,Rainwise IP-100,2013-04-09 15:00:00,
2013-04-09 11:05:00,50.8,47.5,29.94,WNW,292,3.7,13.8,88,0.00,,,0.00,Rainwise IP-100,2013-04-09 15:05:00,
2013-04-09 11:10:00,51.1,47.5,29.94,WSW,247,3.3,13.1,88,0.00,,,0.00,Rainwise IP-100,2013-04-09 15:10:00,
2013-04-09 11:15:00,51.6,48.0,29.94,WSW,247,10.3,14.0,87,0.00,,,0.00,Rainwise IP-100,2013-04-09 15:15:00,
2013-04-09 11:20:00,52.2,48.0,29.93,WSW,247,8.4,15.9,86,0.00,,,0.00,Rainwise IP-100,2013-04-09 15:20:00,
2013-04-09 11:25:00,52.6,48.0,29.93,WNW,292,4.4,12.4,85,0.00,,,0.00,Rainwise IP-100,2013-04-09 15:25:00,
2013-04-09 11:30:00,53.1,48.0,29.93,WNW,292,6.3,15.6,84,0.00,,,0.00,Rainwise IP-100,2013-04-09 15:30:00,
2013-04-09 11:35:00,53.7,48.0,29.93,WSW,247,6.5,14.2,84,0.00,,,0.00,Rainwise IP-100,2013-04-09 15:35:00,
2013-04-09 11:40:00,54.3,50.0,29.93,WSW,247,3.7,12.4,83,0.00,,,0.00,Rainwise IP-100,2013-04-09 15:40:00,
2013-04-09 11:45:00,54.5,49.0,29.92,WSW,247,4.9,13.8,81,0.00,,,0.00,Rainwise IP-100,2013-04-09 15:45:00,
2013-04-09 11:50:00,53.8,48.0,29.92,WNW,292,7.5,12.4,81,0.00,,,0.00,Rainwise IP-100,2013-04-09 15:50:00,
2013-04-09 11:55:00,53.0,47.5,29.93,WSW,247,1.6,17.0,82,0.00,,,0.00,Rainwise IP-100,2013-04-09 15:55:00,
2013-04-09 12:00:00,52.5,47.5,29.92,WSW,247,9.1,14.7,83,0.00,,,0.00,Rainwise IP-100,2013-04-09 16:00:00,
2013-04-09 12:05:00,52.3,47.0,29.93,WNW,292,4.0,14.7,83,0.00,,,0.00,Rainwise IP-100,2013-04-09 16:05:00,
2013-04-09 12:10:00,52.5,47.5,29.93,SSW,202,3.3,13.5,83,0.00,,,0.00,Rainwise IP-100,2013-04-09 16:10:00,
2013-04-09 12:15:00,53.0,47.5,29.93,West,270,7.0,12.1,82,0.00,,,0.00,Rainwise IP-100,2013-04-09 16:15:00,
2013-04-09 12:20:00,53.6,48.0,29.92,West,270,2.6,11.2,82,0.00,,,0.00,Rainwise IP-100,2013-04-09 16:20:00,
2013-04-09 12:25:00,54.0,48.0,29.92,WSW,247,3.7,10.3,81,0.00,,,0.00,Rainwise IP-100,2013-04-09 16:25:00,
2013-04-09 12:30:00,54.1,48.0,29.92,West,270,9.8,11.2,80,0.00,,,0.00,Rainwise IP-100,2013-04-09 16:30:00,
2013-04-09 12:35:00,53.6,47.5,29.92,WSW,247,11.7,12.1,80,0.00,,,0.00,Rainwise IP-100,2013-04-09 16:35:00,
2013-04-09 12:40:00,53.0,47.0,29.92,WSW,247,11.7,14.9,81,0.00,,,0.00,Rainwise IP-100,2013-04-09 16:40:00,
2013-04-09 12:45:00,52.9,47.0,29.92,West,270,7.2,12.4,81,0.00,,,0.00,Rainwise IP-100,2013-04-09 16:45:00,
2013-04-09 12:50:00,53.1,47.0,29.92,WSW,247,7.7,14.7,81,0.00,,,0.00,Rainwise IP-100,2013-04-09 16:50:00,
2013-04-09 12:55:00,53.5,47.5,29.92,West,270,3.0,11.2,81,0.00,,,0.00,Rainwise IP-100,2013-04-09 16:55:00,
2013-04-09 13:00:00,54.4,48.0,29.92,WSW,247,4.2,9.6,80,0.00,,,0.00,Rainwise IP-100,2013-04-09 17:00:00,
2013-04-09 13:05:00,55.1,49.0,29.91,WSW,247,6.3,10.3,79,0.00,,,0.00,Rainwise IP-100,2013-04-09 17:05:00,
2013-04-09 13:10:00,54.9,48.0,29.91,WNW,292,3.5,13.5,78,0.00,,,0.00,Rainwise IP-100,2013-04-09 17:10:00,
2013-04-09 13:15:00,54.8,48.0,29.90,WSW,247,5.6,11.7,78,0.00,,,0.00,Rainwise IP-100,2013-04-09 17:15:00,
2013-04-09 13:20:00,55.1,48.0,29.91,WNW,292,5.1,11.0,78,0.00,,,0.00,Rainwise IP-100,2013-04-09 17:20:00,
2013-04-09 13:25:00,55.6,49.0,29.90,WNW,292,4.7,9.8,77,0.00,,,0.00,Rainwise IP-100,2013-04-09 17:25:00,
2013-04-09 13:30:00,56.3,49.0,29.91,West,270,4.9,7.0,76,0.00,,,0.00,Rainwise IP-100,2013-04-09 17:30:00,
2013-04-09 13:35:00,56.8,49.0,29.91,WSW,247,2.6,9.3,75,0.00,,,0.00,Rainwise IP-100,2013-04-09 17:35:00,
2013-04-09 13:40:00,57.2,49.0,29.91,SSW,202,1.9,9.3,74,0.00,,,0.00,Rainwise IP-100,2013-04-09 17:40:00,
2013-04-09 13:45:00,57.7,49.0,29.91,SW,225,1.9,6.1,73,0.00,,,0.00,Rainwise IP-100,2013-04-09 17:45:00,
2013-04-09 13:50:00,58.4,49.0,29.91,WNW,292,2.3,6.1,72,0.00,,,0.00,Rainwise IP-100,2013-04-09 17:50:00,
2013-04-09 13:55:00,58.9,50.0,29.91,WSW,247,4.9,8.6,71,0.00,,,0.00,Rainwise IP-100,2013-04-09 17:55:00,
2013-04-09 14:00:00,59.2,49.0,29.91,SW,225,4.9,8.9,70,0.00,,,0.00,Rainwise IP-100,2013-04-09 18:00:00,
2013-04-09 14:05:00,59.7,49.0,29.92,WSW,247,2.6,6.8,69,0.00,,,0.00,Rainwise IP-100,2013-04-09 18:05:00,
2013-04-09 14:10:00,60.0,49.0,29.92,SW,225,3.5,6.5,68,0.00,,,0.00,Rainwise IP-100,2013-04-09 18:10:00,
2013-04-09 14:15:00,60.1,49.0,29.92,WNW,292,0.0,9.8,68,0.00,,,0.00,Rainwise IP-100,2013-04-09 18:15:00,
2013-04-09 14:20:00,60.2,49.0,29.92,WSW,247,3.0,9.8,68,0.00,,,0.00,Rainwise IP-100,2013-04-09 18:20:00,
2013-04-09 14:25:00,60.1,49.0,29.92,WNW,292,3.5,9.3,68,0.00,,,0.00,Rainwise IP-100,2013-04-09 18:25:00,
2013-04-09 14:30:00,60.1,49.0,29.92,WNW,292,5.4,10.5,68,0.00,,,0.00,Rainwise IP-100,2013-04-09 18:30:00,
2013-04-09 14:36:00,60.5,50.0,29.92,WNW,292,5.8,10.5,67,0.00,,,0.00,Rainwise IP-100,2013-04-09 18:36:00,
2013-04-09 14:41:00,60.8,50.0,29.92,West,270,6.1,10.0,67,0.00,,,0.00,Rainwise IP-100,2013-04-09 18:41:00,
2013-04-09 14:46:00,60.8,50.0,29.92,West,270,2.8,7.2,67,0.00,,,0.00,Rainwise IP-100,2013-04-09 18:46:00,
2013-04-09 14:51:00,61.0,50.0,29.92,WNW,292,4.0,8.6,67,0.00,,,0.00,Rainwise IP-100,2013-04-09 18:51:00,
2013-04-09 14:56:00,61.6,50.0,29.92,SW,225,3.7,8.4,66,0.00,,,0.00,Rainwise IP-100,2013-04-09 18:56:00,
2013-04-09 15:01:00,62.1,50.0,29.92,WSW,247,2.6,6.5,65,0.00,,,0.00,Rainwise IP-100,2013-04-09 19:01:00,
2013-04-09 15:06:00,62.3,50.0,29.92,WSW,247,2.8,7.0,64,0.00,,,0.00,Rainwise IP-100,2013-04-09 19:06:00,
2013-04-09 15:11:00,62.1,49.0,29.92,WSW,247,1.6,7.5,63,0.00,,,0.00,Rainwise IP-100,2013-04-09 19:11:00,
2013-04-09 15:16:00,62.2,49.0,29.93,SSW,202,1.4,7.0,63,0.00,,,0.00,Rainwise IP-100,2013-04-09 19:16:00,
2013-04-09 15:21:00,63.4,50.5,29.92,WSW,247,1.2,3.7,62,0.00,,,0.00,Rainwise IP-100,2013-04-09 19:21:00,
2013-04-09 15:26:00,64.8,50.5,29.92,WSW,247,1.6,3.5,60,0.00,,,0.00,Rainwise IP-100,2013-04-09 19:26:00,
2013-04-09 15:31:00,65.5,50.5,29.93,WNW,292,2.3,5.1,59,0.00,,,0.00,Rainwise IP-100,2013-04-09 19:31:00,
2013-04-09 15:36:00,66.1,50.5,29.93,SSW,202,1.4,4.0,58,0.00,,,0.00,Rainwise IP-100,2013-04-09 19:36:00,
2013-04-09 15:41:00,67.3,51.0,29.93,West,270,1.9,4.0,56,0.00,,,0.00,Rainwise IP-100,2013-04-09 19:41:00,
2013-04-09 15:46:00,67.8,51.0,29.93,WNW,292,1.9,4.2,55,0.00,,,0.00,Rainwise IP-100,2013-04-09 19:46:00,
2013-04-09 15:51:00,67.7,50.5,29.93,WSW,247,0.0,4.7,55,0.00,,,0.00,Rainwise IP-100,2013-04-09 19:51:00,
2013-04-09 15:56:00,68.0,50.5,29.92,WNW,292,0.0,5.6,54,0.00,,,0.00,Rainwise IP-100,2013-04-09 19:56:00,
2013-04-09 16:01:00,68.1,50.5,29.92,WSW,247,1.6,4.9,53,0.00,,,0.00,Rainwise IP-100,2013-04-09 20:01:00,
2013-04-09 16:06:00,67.8,50.5,29.92,NNE,22,1.9,4.9,53,0.00,,,0.00,Rainwise IP-100,2013-04-09 20:06:00,
2013-04-09 16:11:00,67.9,50.5,29.93,SSE,157,0.0,3.5,53,0.00,,,0.00,Rainwise IP-100,2013-04-09 20:11:00,
2013-04-09 16:16:00,67.5,50.5,29.93,East,90,6.3,9.1,54,0.00,,,0.00,Rainwise IP-100,2013-04-09 20:16:00,
2013-04-09 16:21:00,66.3,50.5,29.93,ESE,112,0.0,8.6,57,0.00,,,0.00,Rainwise IP-100,2013-04-09 20:21:00,
2013-04-09 16:26:00,65.2,50.5,29.93,SSE,157,5.6,9.1,59,0.00,,,0.00,Rainwise IP-100,2013-04-09 20:26:00,
2013-04-09 16:31:00,65.2,50.5,29.94,SE,135,4.4,7.0,60,0.00,,,0.00,Rainwise IP-100,2013-04-09 20:31:00,
2013-04-09 16:36:00,65.3,51.0,29.94,ENE,67,2.8,8.2,60,0.00,,,0.00,Rainwise IP-100,2013-04-09 20:36:00,
2013-04-09 16:41:00,65.0,50.5,29.95,SSE,157,1.9,5.1,60,0.00,,,0.00,Rainwise IP-100,2013-04-09 20:41:00,
2013-04-09 16:46:00,64.8,51.0,29.95,ENE,67,3.0,6.1,61,0.00,,,0.00,Rainwise IP-100,2013-04-09 20:46:00,
2013-04-09 16:51:00,64.5,50.5,29.95,East,90,3.0,5.6,61,0.00,,,0.00,Rainwise IP-100,2013-04-09 20:51:00,
2013-04-09 16:56:00,63.9,50.5,29.95,ENE,67,2.3,6.3,61,0.00,,,0.00,Rainwise IP-100,2013-04-09 20:56:00,
2013-04-09 17:01:00,63.5,50.5,29.96,East,90,2.1,5.6,62,0.00,,,0.00,Rainwise IP-100,2013-04-09 21:01:00,
2013-04-09 17:06:00,63.4,50.5,29.97,ENE,67,2.8,6.3,63,0.00,,,0.00,Rainwise IP-100,2013-04-09 21:06:00,
2013-04-09 17:11:00,63.5,50.5,29.96,ESE,112,3.0,7.5,63,0.00,,,0.00,Rainwise IP-100,2013-04-09 21:11:00,
2013-04-09 17:16:00,63.2,50.5,29.96,East,90,4.4,8.9,63,0.00,,,0.00,Rainwise IP-100,2013-04-09 21:16:00,
2013-04-09 17:21:00,63.0,50.5,29.97,ESE,112,1.6,8.4,63,0.00,,,0.00,Rainwise IP-100,2013-04-09 21:21:00,
2013-04-09 17:26:00,62.8,50.5,29.97,ENE,67,3.3,7.0,63,0.00,,,0.00,Rainwise IP-100,2013-04-09 21:26:00,
2013-04-09 17:31:00,62.4,50.0,29.97,East,90,3.3,9.6,63,0.00,,,0.00,Rainwise IP-100,2013-04-09 21:31:00,
2013-04-09 17:36:00,61.1,49.0,29.97,ENE,67,8.4,11.4,64,0.00,,,0.00,Rainwise IP-100,2013-04-09 21:36:00,
2013-04-09 17:41:00,59.6,48.0,29.98,ENE,67,5.1,9.8,67,0.00,,,0.00,Rainwise IP-100,2013-04-09 21:41:00,
2013-04-09 17:46:00,58.0,48.0,29.98,East,90,8.9,12.4,69,0.00,,,0.00,Rainwise IP-100,2013-04-09 21:46:00,
2013-04-09 17:51:00,55.9,47.5,29.98,East,90,4.9,10.3,73,0.00,,,0.00,Rainwise IP-100,2013-04-09 21:51:00,
2013-04-09 17:56:00,54.3,47.5,29.99,ESE,112,6.8,10.7,77,0.00,,,0.00,Rainwise IP-100,2013-04-09 21:56:00,
2013-04-09 18:01:00,53.4,47.0,29.99,East,90,5.8,9.1,79,0.00,,,0.00,Rainwise IP-100,2013-04-09 22:01:00,
2013-04-09 18:06:00,52.9,47.0,29.99,East,90,3.5,9.6,81,0.00,,,0.00,Rainwise IP-100,2013-04-09 22:06:00,
2013-04-09 18:11:00,52.6,47.5,30.00,East,90,4.7,7.7,82,0.00,,,0.00,Rainwise IP-100,2013-04-09 22:11:00,
2013-04-09 18:16:00,52.5,47.5,29.99,ESE,112,6.1,8.2,83,0.00,,,0.00,Rainwise IP-100,2013-04-09 22:16:00,
2013-04-09 18:21:00,52.5,47.5,30.00,East,90,4.4,7.2,83,0.00,,,0.00,Rainwise IP-100,2013-04-09 22:21:00,
2013-04-09 18:27:00,52.7,48.0,30.00,ESE,112,2.8,5.8,84,0.00,,,0.00,Rainwise IP-100,2013-04-09 22:27:00,
2013-04-09 18:32:00,52.7,48.0,30.01,East,90,1.9,5.6,84,0.00,,,0.00,Rainwise IP-100,2013-04-09 22:32:00,
2013-04-09 18:37:00,52.7,48.0,30.01,East,90,3.0,3.5,84,0.00,,,0.00,Rainwise IP-100,2013-04-09 22:37:00,
2013-04-09 18:42:00,52.7,48.0,30.02,East,90,2.8,6.1,84,0.00,,,0.00,Rainwise IP-100,2013-04-09 22:42:00,
2013-04-09 18:47:00,52.7,48.0,30.02,East,90,3.7,7.0,84,0.00,,,0.00,Rainwise IP-100,2013-04-09 22:47:00,
2013-04-09 18:52:00,53.0,47.5,30.01,ENE,67,3.5,7.7,83,0.00,,,0.00,Rainwise IP-100,2013-04-09 22:52:00,
2013-04-09 18:57:00,53.7,47.5,30.02,ENE,67,5.1,10.0,80,0.00,,,0.00,Rainwise IP-100,2013-04-09 22:57:00,
2013-04-09 19:02:00,54.1,47.5,30.02,ENE,67,3.7,7.7,79,0.00,,,0.00,Rainwise IP-100,2013-04-09 23:02:00,
2013-04-09 19:07:00,54.1,47.5,30.02,ENE,67,4.7,6.3,78,0.00,,,0.00,Rainwise IP-100,2013-04-09 23:07:00,
2013-04-09 19:12:00,54.0,47.5,30.02,ENE,67,4.0,6.3,78,0.00,,,0.00,Rainwise IP-100,2013-04-09 23:12:00,
2013-04-09 19:17:00,53.8,47.5,30.02,East,90,3.3,8.9,78,0.00,,,0.00,Rainwise IP-100,2013-04-09 23:17:00,
2013-04-09 19:22:00,53.6,47.0,30.02,East,90,4.7,6.8,77,0.00,,,0.00,Rainwise IP-100,2013-04-09 23:22:00,
2013-04-09 19:27:00,53.4,47.0,30.02,ENE,67,3.3,6.1,77,0.00,,,0.00,Rainwise IP-100,2013-04-09 23:27:00,
2013-04-09 19:32:00,53.1,46.0,30.02,NNE,22,4.4,4.4,78,0.00,,,0.00,Rainwise IP-100,2013-04-09 23:32:00,
2013-04-09 19:37:00,52.9,46.0,30.02,ENE,67,3.5,5.4,78,0.00,,,0.00,Rainwise IP-100,2013-04-09 23:37:00,
2013-04-09 19:42:00,52.8,47.0,30.02,ENE,67,5.6,6.1,79,0.00,,,0.00,Rainwise IP-100,2013-04-09 23:42:00,
2013-04-09 19:47:00,52.6,47.0,30.03,ENE,67,3.5,6.1,79,0.00,,,0.00,Rainwise IP-100,2013-04-09 23:47:00,
2013-04-09 19:52:00,52.5,47.0,30.03,ENE,67,2.3,5.8,79,0.00,,,0.00,Rainwise IP-100,2013-04-09 23:52:00,
2013-04-09 19:57:00,52.3,46.0,30.04,NNE,22,1.6,3.5,80,0.00,,,0.00,Rainwise IP-100,2013-04-09 23:57:00,
2013-04-09 20:02:00,52.0,46.0,30.04,NE,45,1.6,4.2,80,0.00,,,0.00,Rainwise IP-100,2013-04-10 00:02:00,
2013-04-09 20:07:00,51.7,47.0,30.04,ENE,67,1.4,6.1,81,0.00,,,0.00,Rainwise IP-100,2013-04-10 00:07:00,
2013-04-09 20:12:00,51.5,47.0,30.06,ENE,67,2.8,3.7,81,0.00,,,0.00,Rainwise IP-100,2013-04-10 00:12:00,
2013-04-09 20:17:00,51.4,46.0,30.06,ENE,67,0.0,3.0,81,0.00,,,0.00,Rainwise IP-100,2013-04-10 00:17:00,
2013-04-09 20:22:00,51.2,46.0,30.06,ENE,67,1.2,2.6,82,0.00,,,0.00,Rainwise IP-100,2013-04-10 00:22:00,
2013-04-09 20:27:00,51.0,46.0,30.06,ENE,67,1.2,2.8,82,0.00,,,0.00,Rainwise IP-100,2013-04-10 00:27:00,
2013-04-09 20:32:00,50.8,46.0,30.07,ENE,67,0.0,3.7,82,0.00,,,0.00,Rainwise IP-100,2013-04-10 00:32:00,
2013-04-09 20:37:00,50.6,45.0,30.07,East,90,2.8,2.8,82,0.00,,,0.00,Rainwise IP-100,2013-04-10 00:37:00,
2013-04-09 20:42:00,50.4,46.0,30.07,East,90,0.0,3.7,83,0.00,,,0.00,Rainwise IP-100,2013-04-10 00:42:00,
2013-04-09 20:47:00,50.2,45.0,30.07,SE,135,3.0,4.2,83,0.00,,,0.00,Rainwise IP-100,2013-04-10 00:47:00,
2013-04-09 20:52:00,49.9,45.0,30.07,SSE,157,0.0,4.2,83,0.00,,,0.00,Rainwise IP-100,2013-04-10 00:52:00,
2013-04-09 20:57:00,49.2,44.0,30.07,SSE,157,1.9,2.8,84,0.00,,,0.00,Rainwise IP-100,2013-04-10 00:57:00,
2013-04-09 21:02:00,48.6,45.0,30.07,SSE,157,1.4,2.3,85,0.00,,,0.00,Rainwise IP-100,2013-04-10 01:02:00,
2013-04-09 21:07:00,48.1,44.0,30.06,SSE,157,1.9,2.3,86,0.00,,,0.00,Rainwise IP-100,2013-04-10 01:07:00,
2013-04-09 21:12:00,47.8,45.0,30.06,ESE,112,2.3,3.7,87,0.00,,,0.00,Rainwise IP-100,2013-04-10 01:12:00,
2013-04-09 21:17:00,47.7,44.0,30.07,East,90,1.2,4.0,88,0.00,,,0.00,Rainwise IP-100,2013-04-10 01:17:00,
2013-04-09 21:22:00,47.6,44.0,30.07,ESE,112,0.0,2.3,88,0.00,,,0.00,Rainwise IP-100,2013-04-10 01:22:00,
2013-04-09 21:27:00,47.4,44.0,30.08,ENE,67,1.4,0.0,89,0.00,,,0.00,Rainwise IP-100,2013-04-10 01:27:00,
2013-04-09 21:32:00,47.3,44.0,30.08,ENE,67,0.0,3.3,89,0.00,,,0.00,Rainwise IP-100,2013-04-10 01:32:00,
2013-04-09 21:37:00,47.3,44.0,30.08,East,90,2.8,3.5,89,0.00,,,0.00,Rainwise IP-100,2013-04-10 01:37:00,
2013-04-09 21:42:00,47.4,45.0,30.08,East,90,1.4,4.0,90,0.00,,,0.00,Rainwise IP-100,2013-04-10 01:42:00,
2013-04-09 21:47:00,47.5,45.0,30.08,NE,45,0.0,2.8,90,0.00,,,0.00,Rainwise IP-100,2013-04-10 01:47:00,
2013-04-09 21:52:00,47.5,45.0,30.08,NE,45,1.4,3.7,90,0.00,,,0.00,Rainwise IP-100,2013-04-10 01:52:00,
2013-04-09 21:57:00,47.6,44.0,30.08,ENE,67,3.0,4.0,89,0.00,,,0.00,Rainwise IP-100,2013-04-10 01:57:00,
2013-04-09 22:02:00,47.7,44.0,30.08,ESE,112,2.8,4.0,89,0.00,,,0.00,Rainwise IP-100,2013-04-10 02:02:00,
2013-04-09 22:07:00,47.6,44.0,30.08,ESE,112,2.6,5.8,89,0.00,,,0.00,Rainwise IP-100,2013-04-10 02:07:00,
2013-04-09 22:12:00,47.2,43.0,30.09,SE,135,4.4,6.1,89,0.00,,,0.00,Rainwise IP-100,2013-04-10 02:12:00,
2013-04-09 22:17:00,46.7,43.0,30.09,East,90,4.9,5.4,89,0.00,,,0.00,Rainwise IP-100,2013-04-10 02:17:00,
2013-04-09 22:22:00,46.2,43.0,30.08,ESE,112,3.0,6.1,90,0.00,,,0.00,Rainwise IP-100,2013-04-10 02:22:00,
2013-04-09 22:27:00,45.8,43.0,30.08,East,90,1.6,7.0,91,0.00,,,0.00,Rainwise IP-100,2013-04-10 02:27:00,
2013-04-09 22:32:00,45.6,43.0,30.08,SE,135,1.6,5.1,91,0.00,,,0.00,Rainwise IP-100,2013-04-10 02:32:00,
2013-04-09 22:37:00,45.4,43.0,30.07,East,90,3.0,5.1,92,0.00,,,0.00,Rainwise IP-100,2013-04-10 02:37:00,
2013-04-09 22:42:00,45.3,43.0,30.08,East,90,2.6,5.6,92,0.00,,,0.00,Rainwise IP-100,2013-04-10 02:42:00,
2013-04-09 22:47:00,45.3,43.0,30.07,East,90,6.8,6.8,93,0.00,,,0.00,Rainwise IP-100,2013-04-10 02:47:00,
2013-04-09 22:52:00,45.2,43.0,30.07,East,90,4.0,6.8,93,0.00,,,0.00,Rainwise IP-100,2013-04-10 02:52:00,
2013-04-09 22:57:00,45.3,43.0,30.08,ESE,112,1.4,7.5,93,0.00,,,0.00,Rainwise IP-100,2013-04-10 02:57:00,
2013-04-09 23:02:00,45.4,43.0,30.07,ESE,112,4.2,8.2,94,0.00,,,0.00,Rainwise IP-100,2013-04-10 03:02:00,
2013-04-09 23:07:00,45.4,43.0,30.06,ESE,112,2.1,8.2,94,0.00,,,0.00,Rainwise IP-100,2013-04-10 03:07:00,
2013-04-09 23:12:00,45.5,44.0,30.08,East,90,4.2,8.4,94,0.00,,,0.00,Rainwise IP-100,2013-04-10 03:12:00,
2013-04-09 23:17:00,45.5,44.0,30.07,East,90,3.0,7.5,94,0.00,,,0.00,Rainwise IP-100,2013-04-10 03:17:00,
2013-04-09 23:22:00,45.5,44.0,30.07,SE,135,4.0,7.7,94,0.00,,,0.00,Rainwise IP-100,2013-04-10 03:22:00,
2013-04-09 23:27:00,45.5,44.0,30.07,East,90,1.6,6.5,94,0.00,,,0.00,Rainwise IP-100,2013-04-10 03:27:00,
2013-04-09 23:32:00,45.6,44.0,30.07,ESE,112,4.4,6.5,93,0.00,,,0.00,Rainwise IP-100,2013-04-10 03:32:00,
2013-04-09 23:37:00,45.6,44.0,30.06,ESE,112,5.1,7.5,93,0.00,,,0.00,Rainwise IP-100,2013-04-10 03:37:00,
2013-04-09 23:42:00,45.5,44.0,30.05,SE,135,7.5,7.7,93,0.00,,,0.00,Rainwise IP-100,2013-04-10 03:42:00,
2013-04-09 23:47:00,45.5,44.0,30.05,ESE,112,3.0,10.3,93,0.00,,,0.00,Rainwise IP-100,2013-04-10 03:47:00,
2013-04-09 23:52:00,45.5,44.0,30.05,ESE,112,1.9,8.6,93,0.00,,,0.00,Rainwise IP-100,2013-04-10 03:52:00,
2013-04-09 23:57:00,45.5,44.0,30.05,ESE,112,5.8,7.9,93,0.00,,,0.00,Rainwise IP-100,2013-04-10 03:57:00,